Regional Weather Roundup
Issued by NWS

Home | Current Version | Previous Version | Text Only | Print | Product List | Glossary On
Versions: 1 2 3 4 5 6 7 8 9 10 11 12 13 14 15 16 17 18 19 20 21 22 23 24 25 26 27 28 29 30 31 32 33 34 35 36 37 38 39 40 41 42 43 44 45 46 47 48 49 50
000
ASUS45 KREV 042310
RWRNV
NEVADA REGIONAL WEATHER ROUNDUP
NATIONAL WEATHER SERVICE RENO NV
400 PM PDT SAT JUL 04 2015

NOTE: "FAIR" INDICATES FEW OR NO CLOUDS BELOW 12,000 FEET WITH NO
SIGNIFICANT WEATHER AND/OR OBSTRUCTIONS TO VISIBILITY.

NVZ001-003-004-050000-
WESTERN NEVADA

CITY           SKY/WX    TMP DP  RH WIND       PRES   REMARKS
RENO           CLOUDY    77  50  38 SE12      30.08S
CARSON CITY    FAIR      73  48  40 NE12G22   30.11R
MINDEN         FAIR      75  52  43 SE7       30.13R
SLIDE MTN        N/A     54  41  62 E13         N/A
PYRAMID LAKE     N/A     82 N/A N/A S17         N/A
FALLON         CLOUDY    68  63  84 S10       30.09F
LOVELOCK       CLOUDY    70  62  76 S25G36    30.04F
$$

NVZ002-CAZ072-073-050000-
NORTHERN AND CENTRAL SIERRA

CITY           SKY/WX    TMP DP  RH WIND       PRES   REMARKS
S. LAKE TAHOE  LGT RAIN  66  52  60 VRB6      30.20F
TRUCKEE        CLOUDY    64  55  72 CALM      30.19S
SQUAW VLY 8000 NOT AVBL
SUSANVILLE     SUNNY     84  54  34 CALM      30.00S
BLUE CANYON    CLOUDY    74  57  55 CALM      30.12S
MAMMOTH LAKES  CLOUDY    70  43  37 S10       30.22F
BRIDGEPORT     FAIR      74  49  41 NE10G17   30.18F
$$

NVZ030-031-036-050000-
NORTHERN NEVADA

CITY           SKY/WX    TMP DP  RH WIND       PRES   REMARKS
ELKO           CLOUDY    80  52  37 W13       30.06R
WINNEMUCCA     CLOUDY    84  52  33 S20G25    30.01R
WENDOVER       CLOUDY    88  46  23 W23G30    29.90S
$$

NVZ035-037-050000-
CENTRAL NEVADA

CITY           SKY/WX    TMP DP  RH WIND       PRES   REMARKS
ELY            CLOUDY    82  42  24 W16G25    30.11S
EUREKA           N/A     74  51  44 NW13      30.14S
$$

NVZ013-014-050000-
SOUTH CENTRAL NEVADA

CITY           SKY/WX    TMP DP  RH WIND       PRES   REMARKS
TONOPAH        CLOUDY    72  50  45 NW20      30.14F
$$

NVZ017-020-022-050000-
SOUTHERN NEVADA

CITY           SKY/WX    TMP DP  RH WIND       PRES   REMARKS
LAS VEGAS      PTSUNNY  100  47  16 S14       29.78F
N. LAS VEGAS   MOSUNNY  101  47  16 S13G21    29.81F
NELLIS AFB     MOSUNNY  101  49  17 SE16      29.78F
HENDERSON      MOSUNNY   99  50  19 E6        29.86F
MERCURY        MOSUNNY   98  39  13 VRB5      29.90F
$$



USA.gov is the U.S. government's official web portal to all federal, state and local government web resources and services.